Tracking 19644 objects as of 25-Apr-2019
HD Live streaming from Space Station
objects crossing your sky now

COSMOS 1823 DEB

Track COSMOS 1823 DEB now!
10-day predictions


NORAD ID: 18753
Int'l Code: 1987-020AE
Perigee: 1,471.6 km
Apogee: 1,511.6 km
Inclination: 73.4 °
Period: 115.6 minutes
Semi major axis: 7862 km
RCS: 0.1736 m2 (medium)
Launch date: February 20, 1987
Source: Commonwealth of Independent States (former USSR) (CIS)
Launch site: PLESETSK MISSILE AND SPACE COMPLEX (PKMTR)

Note: This is SATELLITE DEBRIS
aabbcc
Your satellite tracking list
Your tracking list is empty




NASA's NSSDC Master Catalog

Two Line Element Set (TLE):
1 18753U 87020AE  19114.61391385 +.00000048 +00000-0 +45981-3 0  9995
2 18753 073.4482 079.5210 0025436 149.1888 325.7248 12.45251024423913
Source of the keplerian elements: AFSPC